Regional Weather Roundup
Issued by NWS Newport/Morehead, NC

Current Version | Previous Version | Text Only | Print | Product List | Glossary Off
Versions: 1 2 3 4 5 6 7 8 9 10 11 12 13 14 15 16 17 18 19 20 21 22 23 24 25 26 27 28 29 30 31 32 33 34 35 36 37 38 39 40 41 42 43 44 45 46 47 48 49 50
282 ASUS42 KMHX 160325 RWRMHX WEATHER ROUNDUP FOR EASTERN NORTH CAROLINA NATIONAL WEATHER SERVICE NEWPORT/MOREHEAD CITY NC 1000 PM EST SUN JAN 15 2017 NOTE: "FAIR" INDICATES FEW OR NO CLOUDS BELOW 12,000 FEET WITH NO SIGNIFICANT WEATHER AND/OR OBSTRUCTIONS TO VISIBILITY NCZ015>017-031-032-045>047-102-103-160400- NORTH COAST CITY SKY/WX TMP DP RH WIND PRES REMARKS EDENTON CLOUDY 43 39 84 CALM 30.40F ELIZABETH CITY CLEAR 38 36 92 NE3 30.40F KITTY HAWK NOT AVBL MANTEO PTCLDY 40 37 89 N3 30.40R $$ NCZ045>047-081-094-103-104-160400- CENTRAL COAST CITY SKY/WX TMP DP RH WIND PRES REMARKS FRISCO PTCLDY 45 40 82 N10G16 30.37S HAZE $$ NCZ095-097-098-100-101-160400- SOUTHERN COAST CITY SKY/WX TMP DP RH WIND PRES REMARKS BEAUFORT PTCLDY 44 41 89 NE7 30.37S CEDAR ISLAND NOT AVBL JACKSONVILLE PTCLDY 47 42 83 E7 30.36F PINEY ISLAND CLOUDY N/A N/A N/A NE8 30.36F WILMINGTON CLOUDY 50 45 83 E9 30.35S $$ NCZ011>013-027>030-043-044-078>080-089-090>093-098-160400- COASTAL PLAIN CITY SKY/WX TMP DP RH WIND PRES REMARKS AHOSKIE N/A 43 31 62 CALM 30.41S CLINTON CLOUDY 52 47 83 E3 30.36S ELIZABETHTOWN CLEAR 50 46 83 E5 30.34S GOLDSBORO CLOUDY 48 44 86 E6 30.35R GREENVILLE CLOUDY 46 41 81 E3 30.39S HAVELOCK PTCLDY 45 41 86 NE5 30.38S KENANSVILLE CLOUDY 48 43 81 CALM 30.36S KINSTON CLOUDY 48 41 76 E6 30.38S NEW BERN CLOUDY 43 39 86 NE6 30.38S RICHLANDS CLOUDY 46 42 86 E6 30.37R ROCKY MOUNT CLOUDY 47 38 71 VRB3 30.38R WASHINGTON CLOUDY 42 38 88 NE6 30.40R WHITEVILLE CLEAR 50 47 88 E6 30.33S $$ AMZ130-135-150-152-154-156-158-170-250-252-270-ANZ085-086-088-633-658-670-160400- MARINE OBSERVATIONS STATION/POSITION TIME TEMP WIND PRES WAVE SWELL AIR SEA DIR/SP/G HT/PER HT/PER (UTC) (F) (DEG/KT/KT) (MB) (FT/S) (FT/S) CHESAPEAKE LIGHT NOT AVBL 64 E VA BEACH 0250 49 64 10/ 12/ 17 1028.5 5/ 6 3/ 6 DUCK 0300 44 44 20/ 10/ 12 1028.8 2 E DUCK 0300 46 N/A 3/ 6 2/11 OREGON INLET 0300 50 360/ 7/ 10 1028.9 13E OREGON INLT NOT AVBL HATTERAS CG 0300 44 54 10/ 16/ 19 1028.0 DIAMOND BUOY 0250 53 73 20/ 16/ 17 1027.7 5/ 6 3/ 8 CAPE LOOKOUT 0300 46 10/ 12/ 15 1027.7 BEAUFORT LAB 0300 44 50 60/ 3/ 7 1027.4 30 SE NEW RVR IN 0308 51 65 50/ 14/ 19 1027.4 30 SE NEW RVR IN 0313 65 N/A 4/11 2/11 27 SE WRIGHTSVLE 0308 58 71 80/ 16/ 21 1026.5 5 SE WRIGHTSVLE 0308 53 70/ 12/ 21 1027.2 225 S CAPE HAT 0250 69 71 40/ 10/ 12 1026.1 4/11 3/11 41 SE CHARLESTON 0250 69 71 80/ 2/ 4 1025.5 3/ 9 3/ 9 $$

USA.gov is the U.S. government's official web portal to all federal, state and local government web resources and services.